Time,TemperatureF,DewpointF,PressureIn,WindDirection,WindDirectionDegrees,WindSpeedMPH,WindSpeedGustMPH,Humidity,HourlyPrecipIn,Conditions,Clouds,dailyrainin,SoftwareType,DateUTC
2015-02-28 00:02:00,37.1,29.3,29.69,ENE,68,0.4,0.7,73,0.00,,,0.00,WUHU216HW,2015-02-28 08:02:00,
2015-02-28 00:07:00,37.3,29.1,29.70,WSW,248,0.0,1.1,72,0.00,,,0.00,WUHU216HW,2015-02-28 08:07:00,
2015-02-28 00:12:00,37.3,29.1,29.69,WSW,248,0.4,1.1,72,0.00,,,0.00,WUHU216HW,2015-02-28 08:12:00,
2015-02-28 00:17:00,37.4,29.3,29.69,WSW,248,0.2,0.7,72,0.00,,,0.00,WUHU216HW,2015-02-28 08:17:00,
2015-02-28 00:22:00,37.4,29.3,29.69,WNW,293,0.4,1.1,72,0.00,,,0.00,WUHU216HW,2015-02-28 08:22:00,
2015-02-28 00:27:00,37.6,29.4,29.69,WSW,248,0.0,1.1,72,0.00,,,0.00,WUHU216HW,2015-02-28 08:27:00,
2015-02-28 00:32:00,37.4,29.9,29.69,West,270,0.7,0.7,74,0.00,,,0.00,WUHU216HW,2015-02-28 08:32:00,
2015-02-28 00:37:00,37.4,29.6,29.69,WSW,248,0.7,0.7,73,0.00,,,0.00,WUHU216HW,2015-02-28 08:37:00,
2015-02-28 00:42:00,37.4,29.6,29.69,WSW,248,0.4,0.7,73,0.00,,,0.00,WUHU216HW,2015-02-28 08:42:00,
2015-02-28 00:47:00,37.4,29.6,29.69,WSW,248,0.4,0.7,73,0.01,,,0.00,WUHU216HW,2015-02-28 08:47:00,
2015-02-28 00:52:00,37.1,29.3,29.69,WSW,248,0.0,0.7,73,0.01,,,0.00,WUHU216HW,2015-02-28 08:52:00,
2015-02-28 00:57:00,37.1,29.3,29.69,WSW,248,0.0,0.2,73,0.01,,,0.00,WUHU216HW,2015-02-28 08:57:00,
2015-02-28 01:02:00,36.5,29.0,29.70,WSW,248,0.0,0.0,74,0.01,,,0.00,WUHU216HW,2015-02-28 09:02:00,
2015-02-28 01:07:00,36.0,29.8,29.70,WSW,248,0.4,0.4,78,0.01,,,0.00,WUHU216HW,2015-02-28 09:07:00,
2015-02-28 01:12:00,35.6,29.1,29.70,West,270,0.0,0.7,77,0.01,,,0.00,WUHU216HW,2015-02-28 09:12:00,
2015-02-28 01:17:00,35.3,28.7,29.70,West,270,0.0,0.7,77,0.01,,,0.00,WUHU216HW,2015-02-28 09:17:00,
2015-02-28 01:22:00,35.3,28.7,29.69,East,90,0.4,0.7,77,0.01,,,0.00,WUHU216HW,2015-02-28 09:22:00,
2015-02-28 01:27:00,35.3,28.7,29.69,ENE,68,0.0,0.7,77,0.01,,,0.00,WUHU216HW,2015-02-28 09:27:00,
2015-02-28 01:32:00,35.3,28.7,29.70,ENE,68,0.2,0.7,77,0.01,,,0.00,WUHU216HW,2015-02-28 09:32:00,
2015-02-28 01:37:00,35.1,28.9,29.70,ENE,68,0.4,0.4,78,0.01,,,0.00,WUHU216HW,2015-02-28 09:37:00,
2015-02-28 01:42:00,34.9,28.7,29.70,East,90,0.0,0.4,78,0.00,,,0.00,WUHU216HW,2015-02-28 09:42:00,
2015-02-28 01:47:00,34.9,28.7,29.70,East,90,0.0,0.0,78,0.00,,,0.00,WUHU216HW,2015-02-28 09:47:00,
2015-02-28 01:52:00,34.9,28.7,29.70,East,90,0.0,0.0,78,0.00,,,0.00,WUHU216HW,2015-02-28 09:52:00,
2015-02-28 01:57:00,34.9,28.7,29.69,East,90,0.0,0.0,78,0.00,,,0.00,WUHU216HW,2015-02-28 09:57:00,
2015-02-28 02:02:00,34.9,28.7,29.70,East,90,0.0,0.0,78,0.00,,,0.00,WUHU216HW,2015-02-28 10:02:00,
2015-02-28 02:07:00,35.1,28.9,29.70,East,90,0.0,0.0,78,0.00,,,0.00,WUHU216HW,2015-02-28 10:07:00,
2015-02-28 02:12:00,35.1,28.9,29.70,East,90,0.0,0.2,78,0.00,,,0.00,WUHU216HW,2015-02-28 10:12:00,
2015-02-28 02:17:00,35.1,28.9,29.69,East,90,0.0,0.2,78,0.00,,,0.00,WUHU216HW,2015-02-28 10:17:00,
2015-02-28 02:22:00,35.1,28.9,29.69,East,90,0.0,0.0,78,0.00,,,0.00,WUHU216HW,2015-02-28 10:22:00,
2015-02-28 02:27:00,35.1,28.9,29.69,East,90,0.0,0.2,78,0.00,,,0.00,WUHU216HW,2015-02-28 10:27:00,
2015-02-28 02:32:00,34.9,28.7,29.69,East,90,0.0,0.2,78,0.00,,,0.00,WUHU216HW,2015-02-28 10:32:00,
2015-02-28 02:37:00,34.9,28.7,29.69,East,90,0.0,0.0,78,0.00,,,0.00,WUHU216HW,2015-02-28 10:37:00,
2015-02-28 02:42:00,34.9,28.7,29.69,East,90,0.0,0.0,78,0.00,,,0.00,WUHU216HW,2015-02-28 10:42:00,
2015-02-28 02:47:00,34.9,28.7,29.69,East,90,0.0,0.0,78,0.00,,,0.00,WUHU216HW,2015-02-28 10:47:00,
2015-02-28 02:59:00,35.3,29.1,29.69,ENE,68,0.0,0.0,78,0.00,,,0.00,WUHU216HW,2015-02-28 10:59:00,
2015-02-28 03:04:00,35.3,29.1,29.69,ENE,68,0.0,0.2,78,0.00,,,0.00,WUHU216HW,2015-02-28 11:04:00,
2015-02-28 03:09:00,35.3,29.1,29.69,ENE,68,0.0,0.2,78,0.00,,,0.00,WUHU216HW,2015-02-28 11:09:00,
2015-02-28 03:14:00,35.3,29.1,29.69,ENE,68,0.0,0.9,78,0.00,,,0.00,WUHU216HW,2015-02-28 11:14:00,
2015-02-28 03:19:00,35.3,29.1,29.69,ENE,68,0.0,0.9,78,0.00,,,0.00,WUHU216HW,2015-02-28 11:19:00,
2015-02-28 03:24:00,35.3,29.1,29.69,ENE,68,0.2,0.4,78,0.00,,,0.00,WUHU216HW,2015-02-28 11:24:00,
2015-02-28 03:29:00,35.3,29.1,29.69,ENE,68,0.9,0.9,78,0.00,,,0.00,WUHU216HW,2015-02-28 11:29:00,
2015-02-28 03:34:00,35.1,28.9,29.69,ENE,68,0.0,0.9,78,0.00,,,0.00,WUHU216HW,2015-02-28 11:34:00,
2015-02-28 03:39:00,35.1,28.9,29.69,ENE,68,0.0,1.1,78,0.00,,,0.00,WUHU216HW,2015-02-28 11:39:00,
2015-02-28 03:44:00,34.9,29.0,29.69,ENE,68,0.4,1.1,79,0.00,,,0.00,WUHU216HW,2015-02-28 11:44:00,
2015-02-28 03:49:00,34.9,29.0,29.69,ENE,68,0.0,0.4,79,0.00,,,0.00,WUHU216HW,2015-02-28 11:49:00,
2015-02-28 03:54:00,34.9,29.0,29.69,ENE,68,0.0,0.4,79,0.00,,,0.00,WUHU216HW,2015-02-28 11:54:00,
2015-02-28 03:59:00,35.1,29.2,29.69,ENE,68,0.0,0.0,79,0.00,,,0.00,WUHU216HW,2015-02-28 11:59:00,
2015-02-28 04:04:00,35.1,29.2,29.69,ENE,68,0.0,0.0,79,0.00,,,0.00,WUHU216HW,2015-02-28 12:04:00,
2015-02-28 04:09:00,35.1,29.2,29.69,ENE,68,0.4,0.4,79,0.00,,,0.00,WUHU216HW,2015-02-28 12:09:00,
2015-02-28 04:14:00,34.9,29.0,29.69,ENE,68,0.9,0.9,79,0.00,,,0.00,WUHU216HW,2015-02-28 12:14:00,
2015-02-28 04:19:00,34.9,29.3,29.69,ENE,68,0.0,0.9,80,0.00,,,0.00,WUHU216HW,2015-02-28 12:19:00,
2015-02-28 04:24:00,34.7,29.2,29.69,ENE,68,0.2,0.4,80,0.00,,,0.00,WUHU216HW,2015-02-28 12:24:00,
2015-02-28 04:29:00,34.7,29.2,29.69,ENE,68,0.0,0.4,80,0.00,,,0.00,WUHU216HW,2015-02-28 12:29:00,
2015-02-28 04:34:00,34.7,29.2,29.69,ENE,68,0.0,0.2,80,0.00,,,0.00,WUHU216HW,2015-02-28 12:34:00,
2015-02-28 04:39:00,34.7,29.2,29.69,ENE,68,0.4,0.4,80,0.00,,,0.00,WUHU216HW,2015-02-28 12:39:00,
2015-02-28 04:44:00,34.9,29.3,29.69,ENE,68,0.4,1.3,80,0.00,,,0.00,WUHU216HW,2015-02-28 12:44:00,
2015-02-28 04:49:00,34.7,29.2,29.70,ENE,68,0.2,1.3,80,0.00,,,0.00,WUHU216HW,2015-02-28 12:49:00,
2015-02-28 04:54:00,34.7,29.2,29.70,ENE,68,0.4,0.4,80,0.00,,,0.00,WUHU216HW,2015-02-28 12:54:00,
2015-02-28 04:59:00,34.7,29.2,29.70,ENE,68,0.0,0.4,80,0.00,,,0.00,WUHU216HW,2015-02-28 12:59:00,
2015-02-28 05:04:00,34.9,29.3,29.70,ENE,68,0.0,0.2,80,0.00,,,0.00,WUHU216HW,2015-02-28 13:04:00,
2015-02-28 05:09:00,34.7,29.2,29.70,ENE,68,0.2,0.2,80,0.00,,,0.00,WUHU216HW,2015-02-28 13:09:00,
2015-02-28 05:14:00,34.7,29.2,29.70,ENE,68,0.0,0.2,80,0.01,,,0.01,WUHU216HW,2015-02-28 13:14:00,
2015-02-28 05:19:00,34.7,29.2,29.70,ENE,68,1.1,1.1,80,0.01,,,0.01,WUHU216HW,2015-02-28 13:19:00,
2015-02-28 05:24:00,34.7,29.2,29.70,ENE,68,0.0,1.1,80,0.01,,,0.01,WUHU216HW,2015-02-28 13:24:00,
2015-02-28 05:29:00,34.6,29.0,29.70,ENE,68,0.0,1.6,80,0.01,,,0.01,WUHU216HW,2015-02-28 13:29:00,
2015-02-28 05:34:00,34.6,29.0,29.70,ENE,68,0.4,1.6,80,0.01,,,0.01,WUHU216HW,2015-02-28 13:34:00,
2015-02-28 05:39:00,34.6,29.0,29.70,ENE,68,0.2,0.4,80,0.01,,,0.01,WUHU216HW,2015-02-28 13:39:00,
2015-02-28 05:44:00,34.6,29.0,29.70,ENE,68,0.4,0.4,80,0.01,,,0.01,WUHU216HW,2015-02-28 13:44:00,
2015-02-28 05:49:00,34.6,29.0,29.71,ENE,68,0.0,0.4,80,0.01,,,0.01,WUHU216HW,2015-02-28 13:49:00,
2015-02-28 05:54:00,34.6,29.0,29.71,ENE,68,0.0,0.7,80,0.01,,,0.01,WUHU216HW,2015-02-28 13:54:00,
2015-02-28 05:59:00,34.6,29.3,29.71,ENE,68,0.0,0.7,81,0.01,,,0.01,WUHU216HW,2015-02-28 13:59:00,
2015-02-28 06:04:00,34.4,29.1,29.71,ENE,68,0.0,0.4,81,0.01,,,0.01,WUHU216HW,2015-02-28 14:04:00,
2015-02-28 06:09:00,34.6,29.5,29.71,ENE,68,0.0,0.2,82,0.01,,,0.01,WUHU216HW,2015-02-28 14:09:00,
2015-02-28 06:14:00,34.2,29.2,29.71,ENE,68,0.0,0.0,82,0.00,,,0.01,WUHU216HW,2015-02-28 14:14:00,
2015-02-28 06:19:00,34.2,29.2,29.71,ENE,68,0.0,0.0,82,0.00,,,0.01,WUHU216HW,2015-02-28 14:19:00,
2015-02-28 06:24:00,34.2,29.2,29.72,ENE,68,0.0,0.0,82,0.00,,,0.01,WUHU216HW,2015-02-28 14:24:00,
2015-02-28 06:29:00,34.2,29.2,29.72,ENE,68,0.0,0.0,82,0.00,,,0.01,WUHU216HW,2015-02-28 14:29:00,
2015-02-28 06:34:00,34.2,29.2,29.72,ENE,68,0.0,0.0,82,0.00,,,0.01,WUHU216HW,2015-02-28 14:34:00,
2015-02-28 06:39:00,34.2,29.2,29.72,ENE,68,0.0,0.0,82,0.00,,,0.01,WUHU216HW,2015-02-28 14:39:00,
2015-02-28 06:44:00,34.4,29.3,29.72,ENE,68,0.0,0.0,82,0.00,,,0.01,WUHU216HW,2015-02-28 14:44:00,